EHI
59 58 52 44 41 40 40 38 36 35 33 34 36 34 28 25 25 27 25 21 18 17 16 15 13 11 11 10 9 9 12 15 14 12 9 8 8 9 11 11 10 9 10
57 56 52 46 43 41 40 39 39 36 34 33 33 32 28 24 24 25 24 21 18 18 18 17 14 12 11 10 9 9 10 12 12 11 9 8 8 10 12 12 10 9 9
53 54 52 48 45 44 41 39 38 36 32 29 28 28 25 22 22 23 22 21 19 20 22 20 16 13 11 9 9 9 10 11 10 9 8 8 8 10 12 12 10 10 9
50 52 53 51 48 45 42 39 36 33 29 26 24 24 23 21 21 21 20 19 18 20 21 20 16 13 11 9 8 9 10 10 8 6 6 7 8 10 11 11 10 10 9
48 50 52 52 48 44 42 39 34 31 27 25 24 23 21 19 17 17 17 16 16 19 21 19 14 11 10 8 7 7 7 8 7 7 6 7 9 10 10 10 10 9 9
47 49 51 50 47 42 40 39 34 29 26 25 24 22 19 16 13 12 13 13 15 18 19 16 10 7 6 6 5 4 4 5 6 7 8 7 7 9 10 9 9 9 8
46 48 50 48 45 41 40 40 37 31 28 27 24 20 17 14 10 8 8 10 12 14 14 11 7 4 5 6 5 4 5 4 4 6 7 6 6 7 9 9 9 8 8
45 46 47 46 43 42 42 42 40 35 31 27 23 19 16 11 7 5 6 8 11 12 11 9 7 5 6 7 8 7 7 5 4 4 5 5 5 6 7 8 8 8 8
43 43 44 43 42 42 43 42 40 37 32 25 20 18 15 10 6 4 5 8 11 13 13 11 9 7 6 6 8 8 8 7 5 4 5 5 5 6 6 7 8 8 8
41 41 41 40 40 42 43 41 38 36 31 24 19 18 15 11 6 3 5 9 12 13 13 12 9 6 4 4 5 7 8 7 6 6 7 7 7 7 7 7 8 8 8
37 37 36 36 36 39 41 40 36 33 29 26 22 18 15 11 6 3 4 7 9 10 10 9 7 4 3 3 4 5 6 6 7 8 9 9 9 9 8 9 8 7 6
33 32 32 32 31 34 38 37 33 30 27 25 23 18 13 11 7 3 2 4 6 7 8 8 6 4 2 3 3 3 4 5 6 8 9 9 8 8 8 8 8 7 6
29 30 30 29 29 32 35 32 30 28 25 22 20 16 12 10 8 4 1 1 3 6 7 6 4 2 2 2 3 3 3 4 5 6 7 6 5 5 5 6 7 8 7
28 28 28 27 28 31 31 27 26 26 23 21 18 14 11 10 7 5 2 2 2 4 4 3 2 2 2 3 3 3 3 3 4 4 4 4 3 3 3 3 5 7 7
25 25 24 24 26 27 25 21 19 19 18 16 14 11 9 7 6 4 4 3 3 3 3 3 3 3 3 3 3 3 3 4 4 4 3 3 3 3 3 3 3 4 4
23 21 20 21 23 23 20 17 13 10 8 7 5 5 5 4 3 3 3 3 2 2 3 3 3 3 4 4 3 3 4 5 5 5 4 3 3 3 3 3 3 2 2
22 19 17 19 21 22 21 17 12 7 3 2 1 1 2 1 1 1 1 1 0 1 2 3 4 4 5 5 4 3 4 5 5 4 3 3 3 3 3 3 3 3 3
20 16 15 18 20 22 22 19 13 8 6 4 2 1 0 0 0 0 0 0 0 1 2 3 5 6 6 6 5 4 3 4 4 3 3 3 4 4 4 3 3 3 3
17 14 13 15 17 18 20 17 13 10 9 8 6 3 0 0 0 0 0 0 1 1 2 3 4 5 5 4 4 3 3 3 3 3 3 4 5 6 5 3 2 2 2
14 12 11 12 13 15 16 14 12 11 10 10 8 5 2 1 1 1 0 0 1 2 2 2 1 2 3 3 3 3 3 3 2 2 3 4 5 5 5 3 2 1 1
10 10 10 11 12 13 14 12 11 10 9 8 7 6 3 2 3 2 1 0 0 1 1 1 0 0 1 1 2 2 1 1 1 1 1 3 3 3 3 3 2 1 0
6 7 8 10 11 12 12 12 11 10 8 7 6 4 3 3 4 3 2 1 0 0 0 0 0 0 0 1 2 2 1 0 0 0 1 1 1 1 3 3 2 1 0
5 6 7 10 10 10 10 11 11 9 8 7 6 4 4 4 4 3 3 3 2 0 0 0 0 0 0 1 2 2 1 0 0 0 1 1 1 2 3 2 1 0 0
6 6 7 9 9 10 10 10 10 9 8 7 6 5 5 4 3 3 4 4 3 1 0 0 0 0 0 0 1 1 1 0 0 0 1 2 2 3 3 1 0 0 0
6 6 6 7 7 8 10 10 9 8 6 6 5 4 4 3 3 2 3 3 3 2 1 1 1 0 0 0 0 0 0 0 0 0 1 2 3 3 2 1 0 0 0
4 4 5 5 5 6 8 8 7 6 5 4 4 4 3 3 3 3 2 3 3 3 2 2 2 1 0 0 0 0 0 0 0 0 0 1 3 3 1 0 0 0 0
Wind_Speed
6 5 5 5 4 3 3 3 2 2 2 2 2 2 2 1 1 1 2 1 1 2 2 2 2 2 2 2 2 2 1 1 2 2 1 1 1 2 1 2 2 3 4
6 5 5 5 4 4 4 3 2 2 2 2 2 1 2 1 1 2 2 2 2 2 2 2 2 2 2 2 2 2 2 1 1 2 2 2 2 2 1 2 3 3 2
6 6 5 5 4 4 3 3 3 2 2 2 2 2 2 1 1 2 2 2 3 3 2 2 2 2 2 2 2 2 2 2 1 2 2 2 2 1 1 2 3 2 3
4 5 4 4 4 4 3 3 3 3 2 2 1 2 2 1 1 1 2 3 2 2 2 2 2 2 2 2 2 2 2 2 2 2 2 2 1 1 1 1 2 2 3
3 3 3 3 3 3 3 3 2 2 3 2 2 2 2 1 0 1 3 3 3 3 3 3 3 2 2 2 2 2 2 2 2 2 3 2 1 1 1 2 2 2 2
3 2 2 2 3 3 2 2 2 2 2 2 2 2 1 0 1 2 2 2 2 2 2 3 2 1 0 1 2 3 3 2 2 2 3 2 3 2 2 2 2 3 3
3 2 2 2 3 3 3 3 3 3 2 2 2 2 1 1 0 1 3 2 2 1 2 2 3 2 1 1 2 3 4 5 5 3 3 4 3 2 2 3 3 3 4
3 2 2 2 2 2 2 3 3 2 2 2 2 2 1 1 1 1 3 3 3 2 2 2 2 2 2 2 3 2 3 3 4 3 3 4 4 3 3 4 4 4 4
2 2 2 2 2 3 3 3 2 2 2 2 2 2 2 1 2 2 2 3 3 2 2 1 1 1 1 2 2 3 3 3 4 5 5 5 6 7 5 3 3 3 4
1 2 2 2 3 3 3 2 2 2 2 2 2 2 2 2 2 2 2 3 3 2 2 1 0 0 2 2 2 3 4 3 4 5 4 5 6 6 7 5 3 3 3
1 1 2 2 2 2 2 1 2 2 2 2 2 2 2 2 3 2 1 2 3 3 2 2 1 1 2 3 3 4 5 5 5 5 4 4 3 3 3 3 3 3 3
1 0 1 1 2 2 2 2 2 2 3 3 2 2 2 2 2 3 3 3 4 3 3 2 2 3 5 6 5 6 7 6 4 4 3 3 2 2 2 3 3 4 4
0 0 1 1 1 2 2 2 2 2 2 2 2 2 2 1 2 1 2 3 4 3 2 4 4 6 6 6 7 7 5 3 3 3 3 3 2 2 2 3 3 3 4
1 1 2 2 2 1 1 2 2 2 2 2 2 2 2 1 1 1 1 2 3 3 3 4 6 7 6 6 5 4 4 3 2 3 3 3 2 2 2 2 2 2 2
1 1 2 2 1 1 1 1 2 2 2 2 2 1 1 1 1 2 2 2 2 2 3 4 4 3 3 3 3 2 2 2 2 2 3 3 2 2 2 2 2 2 2
1 2 2 2 1 1 1 1 1 1 2 2 2 2 1 1 2 1 2 3 4 3 3 4 4 3 3 3 2 2 2 2 2 2 2 2 2 2 2 2 2 2 3
2 3 3 2 2 2 2 2 1 1 1 2 3 3 4 4 3 2 3 3 4 2 3 4 3 2 2 3 2 2 2 1 1 2 2 2 2 2 2 2 2 2 3
3 3 3 2 2 2 2 3 2 2 2 2 3 5 6 6 5 4 2 1 2 2 3 3 3 2 2 2 2 2 2 1 1 2 2 2 2 2 2 2 2 3 3
3 3 2 2 3 2 2 3 2 3 2 2 1 2 4 5 5 4 3 2 3 3 3 3 3 3 2 2 1 2 2 1 1 2 2 3 3 2 3 3 3 3 3
2 2 3 3 3 2 2 2 2 2 3 2 2 1 1 1 2 2 3 4 3 3 3 3 2 2 2 1 1 2 2 1 2 2 3 3 2 2 3 3 3 2 3
3 2 3 4 3 2 2 3 3 2 3 3 3 1 2 3 3 3 3 3 3 3 2 2 2 2 2 2 2 2 3 2 2 2 3 3 3 3 3 3 3 3 3
4 3 3 3 3 2 3 3 3 3 4 4 3 2 4 3 3 2 2 2 3 2 2 2 2 2 2 2 2 2 2 2 2 2 3 3 3 3 3 2 2 3 3
4 4 4 3 3 2 3 3 4 4 4 3 3 2 2 3 3 2 2 2 2 2 2 2 2 2 2 2 1 1 2 2 2 2 3 3 3 3 3 2 3 3 3
4 5 4 4 4 4 4 4 4 4 4 3 3 2 2 2 2 3 3 2 1 2 2 2 2 2 2 2 1 1 1 2 2 2 4 4 4 3 2 2 3 3 3
5 5 5 4 4 4 4 4 4 4 3 3 2 3 3 3 2 2 2 2 2 2 2 2 1 1 1 2 2 2 2 2 2 3 3 4 4 3 3 3 2 3 3
5 5 5 4 4 4 4 4 4 4 3 2 2 2 2 3 3 3 2 2 2 2 2 2 2 2 2 2 2 2 1 1 2 3 3 3 3 3 3 3 3 3 3
Wind_Direction
166 165 163 169 172 173 165 168 166 172 167 165 174 192 202 208 215 247 261 269 280 291 289 281 272 283 303 310 306 307 303 279 268 284 298 311 312 279 244 246 246 216 212
161 164 170 167 172 181 171 171 169 179 192 189 192 209 219 208 228 250 271 280 275 275 278 278 274 266 279 295 298 291 290 278 244 267 279 277 260 251 235 238 258 256 239
160 168 173 176 177 178 173 178 179 182 193 216 204 215 228 219 242 263 271 280 282 280 276 268 263 263 267 278 280 287 286 295 259 253 266 260 262 268 258 258 267 268 268
151 162 169 174 170 177 179 176 182 181 178 199 221 235 237 213 258 296 289 278 281 288 289 288 261 240 247 268 270 284 299 300 289 275 274 269 267 290 275 269 275 270 276
140 152 162 165 166 172 174 174 179 192 192 188 216 236 250 221 266 306 288 273 275 282 290 292 270 242 246 253 272 284 292 290 291 284 280 292 292 321 307 293 289 284 277
141 150 141 159 166 167 175 172 178 191 205 209 215 218 245 295 40 351 331 304 294 297 306 305 291 285 333 237 263 287 285 275 284 291 290 290 292 302 305 301 302 303 293
143 147 152 172 185 184 192 185 193 198 201 206 216 195 161 150 220 322 328 298 286 285 289 293 294 300 318 310 278 272 275 273 267 268 279 283 287 297 301 295 290 286 279
157 164 167 181 183 183 203 203 203 202 209 211 213 190 173 184 197 251 304 272 269 256 259 261 259 300 323 320 288 280 271 273 261 258 264 268 275 276 265 272 278 287 279
168 178 179 188 195 198 209 210 203 205 216 217 212 206 195 189 209 233 295 267 271 276 272 281 241 235 322 319 291 287 287 282 276 271 267 263 259 259 260 270 273 279 289
181 193 194 193 205 209 212 202 203 213 225 229 219 210 205 199 201 215 272 272 275 279 276 254 23 68 274 282 281 285 281 286 292 284 268 259 252 249 246 236 249 266 281
220 210 206 191 201 207 198 196 204 219 224 228 225 221 217 193 182 198 203 281 290 283 276 260 241 238 265 256 254 259 264 275 277 271 268 259 249 241 235 229 228 240 261
49 252 213 200 224 212 193 206 207 214 221 216 213 227 227 191 177 194 212 244 281 287 285 287 278 265 263 258 250 256 265 272 270 274 275 271 273 270 263 250 243 242 242
21 314 262 234 235 220 210 218 211 207 225 219 220 230 230 200 167 170 235 255 274 274 285 294 292 276 265 253 242 249 258 263 271 278 280 278 278 269 267 264 257 251 262
301 269 247 229 241 213 213 219 215 218 225 225 233 249 251 225 205 218 249 256 270 274 282 287 281 269 263 258 245 236 236 243 253 269 276 279 285 288 284 277 280 279 270
301 278 269 250 228 212 229 256 239 219 224 225 233 244 261 260 274 252 247 260 259 262 277 273 268 269 259 256 255 240 235 241 248 263 279 289 293 293 296 299 291 288 284
284 283 281 273 232 235 232 252 1 255 196 194 206 223 225 194 199 230 244 259 268 264 253 261 267 275 280 274 262 255 240 236 244 263 272 274 280 284 283 287 281 282 287
291 289 284 280 253 242 239 236 247 294 242 214 208 211 214 214 218 233 257 278 276 257 248 256 261 263 272 279 276 271 266 256 257 272 277 278 279 278 280 287 290 288 287
292 288 288 289 278 258 254 251 245 246 256 247 228 216 213 219 224 231 244 276 269 244 256 271 275 278 280 286 290 291 286 281 276 282 285 283 279 280 279 278 278 288 295
291 292 294 292 284 271 261 255 259 266 263 256 232 215 213 214 217 223 201 247 267 272 270 273 276 276 280 283 281 278 279 281 293 285 283 285 287 286 282 281 282 291 290
290 302 292 287 283 283 290 287 278 273 273 263 249 237 176 214 227 210 208 236 258 272 276 275 279 286 280 275 273 273 274 277 286 288 288 281 279 282 285 285 282 281 283
296 290 267 277 293 309 307 300 299 294 293 291 278 218 187 235 243 232 221 226 245 260 269 267 265 276 273 264 263 265 269 270 271 283 290 292 287 284 281 283 292 289 287
296 300 296 295 294 296 302 294 291 289 280 277 282 231 196 230 255 255 248 240 247 252 254 262 265 269 276 279 278 278 276 280 286 291 292 292 289 288 288 284 282 278 277
293 291 286 288 290 283 276 275 278 276 276 277 284 286 232 254 273 278 272 262 251 251 241 244 250 255 267 271 276 282 278 284 287 288 288 291 291 284 284 287 286 289 289
287 286 288 286 279 276 275 278 281 283 284 286 286 286 273 269 271 281 281 276 263 254 246 233 237 250 270 283 287 297 298 300 297 283 282 282 285 285 290 291 287 295 297
285 287 288 287 283 284 285 281 279 278 282 284 287 295 292 287 278 273 270 265 270 260 259 250 227 246 266 281 293 300 302 310 306 302 279 270 276 285 289 285 280 278 275
287 289 291 294 296 299 302 299 293 290 287 284 284 284 285 287 286 279 275 268 270 267 262 256 253 267 267 262 273 272 254 280 292 289 280 272 269 269 277 270 271 268 270